Regional Weather Roundup
Issued by NWS Memphis, TN

Home | Current Version | Previous Version | Text Only | Print | Product List | Glossary On
Versions: 1 2 3 4 5 6 7 8 9 10 11 12 13 14 15 16 17 18 19 20 21 22 23 24 25 26 27 28 29 30 31 32 33 34 35 36 37 38 39 40 41 42 43 44 45 46 47 48 49 50
000
ASUS44 KMEG 230810
RWRMEG
MEMPHIS CWA HOURLY WEATHER ROUNDUP
NATIONAL WEATHER SERVICE MEMPHIS TN
300 AM CDT TUE SEP 23 2014

...WEST TENNESSEE...

CITY           SKY/WX    TMP DP  RH WIND       PRES   REMARKS
MEMPHIS INTL   CLEAR     60  47  61 NE7       30.21S
NWS MEMPHIS      N/A     57 N/A N/A MISG        N/A
JACKSON        CLEAR     50  46  86 CALM      30.22F
LEXINGTON      CLEAR     48  45  87 N3        30.21S
SAVANNAH       CLEAR     46  46 100 CALM      30.21S
DYERSBURG      CLEAR     54  39  58 CALM      30.24F
UNION CITY     CLEAR     45  45 100 N3        30.23S
PARIS          CLEAR     48  45  87 NE5       30.24S
HUNTINGDON     CLEAR     48  45  90 NE5       30.24F


...EASTERN ARKANSAS...

CITY           SKY/WX    TMP DP  RH WIND       PRES   REMARKS
JONESBORO      CLEAR     54  48  80 NE5       30.23F
WEST MEMPHIS   CLEAR     54  49  83 NE5       30.20F
BATESVILLE     PTCLDY    52  48  87 CALM      30.24S
NEWPORT        CLEAR     50  48  92 N13       30.24F
WALNUT RIDGE   CLEAR     52  46  82 N6        30.24S
BLYTHEVILLE    CLEAR     50  48  93 CALM      30.23S
SEARCY         CLEAR     56  48  74 N5        30.23S
STUTTGART      CLEAR     55  46  71 NE6       30.21S
PINE BLUFF     CLEAR     59  49  69 NE7       30.20S
MONTICELLO     CLEAR     57  51  80 NE6       30.17F


...NORTH MISSISSIPPI...

CITY           SKY/WX    TMP DP  RH WIND       PRES   REMARKS
TUPELO         CLEAR     53  49  86 NE8       30.18F
OXFORD         CLEAR     52  48  87 E7        30.20F
OLIVE BRANCH   CLEAR     54  54 100 NE6       30.21S
TUNICA         CLEAR     52  46  82 N6        30.21F
CLARKSDALE       N/A     55  52  88 NE8       30.20S
CORINTH          N/A     52  48  87 CALM      30.20S
GRENADA        CLEAR     57  50  77 NE7       30.18S
GREENWOOD      CLEAR     54  51  90 NE6       30.16S
COLUMBUS       CLEAR     55  51  87 N5        30.16S
STARKVILLE     FAIR      54  52  94 CALM      30.16S
GOLDEN TRIANGL CLEAR     54  46  76 N8        30.16S


...SOUTHEAST MISSOURI...

CITY           SKY/WX    TMP DP  RH WIND       PRES   REMARKS
WEST PLAINS    CLEAR     48  45  89 CALM      30.27S
POPLAR BLUFF   CLEAR     48  45  89 N3        30.25R
CAPE GIRARDEAU FOG       43  42  97 CALM      30.26S VSB 1/2


...NORTHWEST ALABAMA...

CITY           SKY/WX    TMP DP  RH WIND       PRES   REMARKS
MUSCLE SHOALS  CLEAR     57  46  66 E3        30.20S


...MIDDLE TENNESSEE...

CITY           SKY/WX    TMP DP  RH WIND       PRES   REMARKS
NASHVILLE      CLEAR     52  46  80 CALM      30.24S
CLARKSVILLE    CLEAR     48  43  82 CALM      30.25S
DICKSON        CLEAR     52  45  76 CALM      30.23S
COLUMBIA       CLEAR     46  46 100 CALM      30.20S
LEWISBURG      CLEAR     44  42  93 CALM      30.21F


...WESTERN KENTUCKY...

CITY           SKY/WX    TMP DP  RH WIND       PRES   REMARKS
PADUCAH        CLEAR     51  46  83 CALM      30.25S
FORT CAMPBELL  CLEAR     50  46  84 NE6       30.24F


...CENTRAL ARKANSAS...

CITY           SKY/WX    TMP DP  RH WIND       PRES   REMARKS
LITTLE ROCK    CLEAR     57  50  77 NE5       30.21S


SKY/WX REPORTED AS FAIR MEANS FEW OR NO CLOUDS BELOW
12 THOUSAND FEET.




USA.gov is the U.S. government's official web portal to all federal, state and local government web resources and services.